This demonstration page uses our WeatherBlox Daily Observations layout. Learn more.

Left ArrowRight Arrow

39.08367, -84.50855

Hourly Observations for August 17, 2015

Temp ( °F °C ) Dew Point ( °F °C ) Humidity (%) Winds ( mph kmh ) Pressure ( in mb ) Visibility ( mi km ) Precip ( " mm )
12:53 am 00:53 Clear 69 20.6 69 20.6 100 100 NE 3 6 30.12 1020 7 11 N/A
1:53 am 01:53 Clear with Mist and Fog 68 20 68 20 100 100 N N/A 30.11 1020 5 8 N/A
2:53 am 02:53 Clear with Mist and Fog 68 20 67 19.4 96 96 N N/A 30.11 1020 5 8 N/A
3:53 am 03:53 Clear with Mist and Fog 66 18.9 66 18.9 100 100 N N/A 30.11 1020 1 2 N/A
4:00 am 04:00 Clear with Fog 66 19 66 19 100 100 N N/A 30.09 1019 1 1 N/A
4:07 am 04:07 Clear with Mist and Fog 66 18.9 66 18.9 100 100 N N/A 30.09 1019 3 4 N/A
4:14 am 04:14 Clear with Mist and Fog 66 19 66 19 100 100 N N/A 30.09 1019 6 10 N/A
4:40 am 04:40 Clear with Mist and Fog 67 19.4 67 19.4 100 100 N N/A 30.09 1019 2 3 N/A
4:53 am 04:53 Clear with Mist and Fog 66 18.9 66 18.9 100 100 N N/A 30.10 1019 3 5 N/A
5:53 am 05:53 Clear with Mist and Fog 67 19.4 67 19.4 100 100 N N/A 30.10 1019 5 8 N/A
6:53 am 06:53 Sunny with Mist and Fog 67 19.4 67 19.4 100 100 N N/A 30.11 1020 3 4 N/A
7:01 am 07:01 Sunny with Mist and Fog 67 19.4 67 19.4 100 100 N N/A 30.09 1019 4 6 N/A
7:53 am 07:53 Sunny with Mist and Fog 69 20.6 69 20.6 100 100 undefined N/A 30.13 1020 4 6 N/A
8:53 am 08:53 Sunny with Mist and Fog 72 22.2 70 21.1 94 94 N N/A 30.13 1020 6 10 N/A
9:53 am 09:53 Sunny 77 25 71 21.7 82 82 N N/A 30.12 1020 10 16 N/A
10:53 am 10:53 Sunny 81 27.2 72 22.2 74 74 SE 5 7 30.12 1020 10 16 N/A
11:53 am 11:53 Sunny 84 28.9 73 22.8 70 70 S 5 7 30.11 1020 10 16 N/A
12:26 pm 12:26 Partly Cloudy with Nearby Thunderstorms 82 28 72 22 70 70 S 7 11 30.09 1019 9 14 N/A
12:41 pm 12:41 Mostly Cloudy with Light Rain 78 25.6 73 22.8 85 85 WSW 9 15 30.09 1019 6 10 0.01 0.25
12:53 pm 12:53 Mostly Cloudy with Light Rain 78 25.6 67 19.4 69 69 VRB 5 7 30.10 1019 10 16 0.01 0.25
1:53 pm 13:53 Mostly Cloudy 79 26.1 72 22.2 79 79 N N/A 30.10 1019 10 16 N/A
2:53 pm 14:53 Partly Cloudy 83 28.3 70 21.1 65 65 N N/A 30.08 1019 10 16 N/A
3:53 pm 15:53 Sunny 81 27.2 72 22.2 74 74 SSW 6 9 30.05 1018 10 16 N/A
4:53 pm 16:53 Sunny 80 26.7 72 22.2 76 76 S 7 11 30.04 1017 10 16 N/A
5:53 pm 17:53 Mostly Cloudy 79 26.1 73 22.8 82 82 SSW 6 9 30.05 1018 10 16 N/A
6:53 pm 18:53 Mostly Cloudy 78 25.6 72 22.2 82 82 SSW 5 7 30.04 1017 10 16 N/A
7:53 pm 19:53 Mostly Cloudy 77 25 72 22.2 85 85 undefined N/A 30.04 1017 10 16 N/A
8:53 pm 20:53 Mostly Clear 75 23.9 71 21.7 88 88 S 6 9 30.03 1017 10 16 N/A
9:53 pm 21:53 Clear 74 23.3 71 21.7 91 91 N N/A 30.04 1017 10 16 N/A
10:53 pm 22:53 Clear 72 22.2 71 21.7 97 97 N N/A 30.04 1017 10 16 N/A
11:53 pm 23:53 Clear 71 21.7 71 21.7 100 100 N N/A 30.03 1017 8 13 N/A

Powered by AerisWeather